Weather History for PMDY - May, 2014

Change the Weather History Date:

Friday, May 30, 2014

  Actual Average Record
Temperature  
Mean Temperature 73 °F -  
Max Temperature 77 °F - - ()
Min Temperature 69 °F - - ()
Cooling Degree Days 8    
Growing Degree Days 23 (Base 50)    
Moisture  
Dew Point 71 °F    
Average Humidity 95    
Maximum Humidity 100    
Minimum Humidity 78    
Precipitation  
Precipitation 0.01 in - - ()
Sea Level Pressure  
Sea Level Pressure 30.44 in    
Wind  
Wind Speed 15 mph (ENE)    
Max Wind Speed 18 mph    
Max Gust Speed 24 mph    
Visibility 10 miles    
Events      
T = Trace of Precipitation, MM = Missing Value Source: NWS Daily Summary

Daily Weather History Graph

Daily Weather History Graph

Search for Another Location

Airport or City:

Trip Planner

Search our weather history database for the weather conditions in past years. The results will help you decide how hot, cold, wet, or windy it might be!

Date:

Astronomy

May. 30, 2014 Rise Set
Actual Time 4:53 PM GMT 6:41 AM GMT
Civil Twilight 4:26 PM GMT 7:07 AM GMT
Nautical Twilight 3:55 PM GMT 7:39 AM GMT
Astronomical Twilight 3:21 PM GMT 8:12 AM GMT
Moon 6:45 PM GMT (5/30) 7:47 AM GMT (5/30)
Length of Visible Light 14h 40m
Length of Day
13h 47m
Waxing Crescent, 3% of the Moon is Illuminated
May 30
Waxing Crescent
Jun 5
First Quarter
Jun 13
Full
Jun 19
Last Quarter
Jun 27
New

Hourly Weather History & Observations

Time (GMT) Temp. Dew Point Humidity Pressure Visibility Wind Dir Wind Speed Gust Speed Precip Events Conditions
12:56 AM 75.9 °F 72.9 °F 90% 31.11 in 10.0 mi East 18.4 mph - N/A   Mostly Cloudy
1:00 AM 75.2 °F 73.4 °F 94% 30.20 in 10.0 mi East 18.4 mph - N/A   Overcast
1:21 AM 75.2 °F 73.4 °F 94% 30.19 in 10.0 mi East 13.8 mph 23.0 mph N/A   Overcast
1:56 AM - - N/A% 30.19 in 10.0 mi East 17.3 mph - N/A   Overcast
2:06 AM - - N/A% 30.19 in 10.0 mi East 18.4 mph 23.0 mph N/A   Mostly Cloudy
2:20 AM 77.0 °F 71.6 °F 83% 30.19 in 10.0 mi ENE 12.7 mph 20.7 mph N/A   Mostly Cloudy
2:56 AM 73.4 °F 73.4 °F 100% 30.18 in 7.0 mi East 12.7 mph - N/A   Mostly Cloudy
3:56 AM 73.9 °F 72.9 °F 96% 31.10 in 10.0 mi ENE 13.8 mph - N/A   Mostly Cloudy
4:41 AM 73.4 °F 71.6 °F 94% 30.18 in 10.0 mi ENE 13.8 mph - N/A   Overcast
4:56 AM 73.9 °F 72.9 °F 96% 31.10 in 10.0 mi ENE 13.8 mph - N/A   Mostly Cloudy
5:22 AM 73.4 °F 71.6 °F 94% 30.19 in 10.0 mi East 13.8 mph - N/A   Mostly Cloudy
5:56 AM 73.4 °F 73.4 °F 100% 30.20 in 10.0 mi ENE 11.5 mph - N/A   Mostly Cloudy
6:04 AM 71.6 °F 71.6 °F 100% 30.20 in 6.0 mi East 13.8 mph - N/A   Mostly Cloudy
6:34 AM 71.6 °F 71.6 °F 100% 30.20 in 8.0 mi ENE 12.7 mph 20.7 mph N/A   Overcast
6:56 AM 72.0 °F 72.0 °F 100% 31.13 in 10.0 mi East 17.3 mph - N/A   Overcast
7:56 AM 70.9 °F 70.9 °F 100% 31.15 in 10.0 mi ENE 11.5 mph 23.0 mph N/A   Overcast
8:56 AM 69.8 °F 69.8 °F 100% 30.23 in 4.0 mi ENE 11.5 mph - N/A   Overcast
9:56 AM 70.9 °F 70.9 °F 100% 30.23 in 10.0 mi East 16.1 mph - N/A   Overcast
10:24 AM 71.6 °F 71.6 °F 100% 30.23 in 10.0 mi East 16.1 mph 24.2 mph N/A   Overcast
10:31 AM 69.8 °F 69.8 °F 100% 30.22 in 10.0 mi East 12.7 mph - 0.01 in   Mostly Cloudy
10:41 AM 71.6 °F 71.6 °F 100% 30.22 in 10.0 mi East 17.3 mph 24.2 mph 0.01 in   Mostly Cloudy
10:48 AM 71.6 °F 71.6 °F 100% 30.22 in 10.0 mi East 17.3 mph - 0.01 in   Mostly Cloudy
10:56 AM 70.9 °F 70.9 °F 100% 31.13 in 10.0 mi East 17.3 mph - 0.01 in   Mostly Cloudy
11:56 AM 69.8 °F 69.8 °F 100% 30.20 in 10.0 mi ENE 11.5 mph - N/A   Mostly Cloudy
12:27 PM 71.6 °F 71.6 °F 100% 30.20 in 10.0 mi East 12.7 mph - N/A   Overcast
12:34 PM 71.6 °F 71.6 °F 100% 30.19 in 10.0 mi East 13.8 mph 20.7 mph N/A   Mostly Cloudy
12:56 PM 70.0 °F 70.0 °F 100% 31.11 in 10.0 mi East 17.3 mph - N/A   Overcast
1:44 PM 69.8 °F 69.8 °F 100% 30.18 in 10.0 mi East 16.1 mph - N/A   Mostly Cloudy
1:56 PM 70.0 °F 70.0 °F 100% 30.18 in 10.0 mi East 12.7 mph - N/A   Mostly Cloudy
2:12 PM 69.8 °F 69.8 °F 100% 30.18 in 5.0 mi East 16.1 mph - N/A   Mostly Cloudy
2:56 PM 69.8 °F 69.8 °F 100% 30.18 in 10.0 mi East 10.4 mph - N/A   Mostly Cloudy
3:21 PM 69.8 °F 69.8 °F 100% 30.17 in 10.0 mi East 15.0 mph - N/A   Scattered Clouds
3:56 PM 70.0 °F 70.0 °F 100% 31.09 in 10.0 mi East 17.3 mph - N/A   Partly Cloudy
4:10 PM 69.8 °F 69.8 °F 100% 30.18 in 8.0 mi East 12.7 mph - N/A   Mostly Cloudy
4:29 PM 69.8 °F 69.8 °F 100% 30.17 in 10.0 mi East 13.8 mph - N/A   Mostly Cloudy
4:56 PM 70.0 °F 70.0 °F 100% 31.09 in 10.0 mi East 15.0 mph - N/A   Mostly Cloudy
5:25 PM 69.8 °F 69.8 °F 100% 30.18 in 10.0 mi East 15.0 mph - N/A   Scattered Clouds
5:56 PM 71.6 °F 71.6 °F 100% 30.19 in 10.0 mi East 15.0 mph - N/A   Mostly Cloudy
6:56 PM 72.9 °F 72.0 °F 97% 31.10 in 10.0 mi East 15.0 mph - N/A   Mostly Cloudy
7:56 PM 73.9 °F 70.9 °F 90% 31.11 in 10.0 mi ESE 10.4 mph - N/A   Clear
8:56 PM 75.2 °F 69.8 °F 83% 30.20 in 10.0 mi East 13.8 mph - N/A   Mostly Cloudy
9:25 PM 75.2 °F 69.8 °F 83% 30.20 in 10.0 mi WNW 15.0 mph - N/A   Mostly Cloudy
9:38 PM 75.2 °F 69.8 °F 83% 30.20 in 10.0 mi WNW 15.0 mph - N/A   Mostly Cloudy
9:56 PM 75.9 °F 68.9 °F 79% 31.12 in 10.0 mi WNW 13.8 mph - N/A   Mostly Cloudy
10:10 PM 75.2 °F 68.0 °F 78% 30.20 in 10.0 mi WNW 15.0 mph - N/A   Partly Cloudy
10:39 PM 75.2 °F 69.8 °F 83% 30.20 in 10.0 mi WNW 13.8 mph - N/A   Mostly Cloudy
10:56 PM 75.9 °F 68.9 °F 79% 31.11 in 10.0 mi WNW 12.7 mph - N/A   Mostly Cloudy
11:56 PM 75.2 °F 68.0 °F 78% 30.18 in 10.0 mi West 9.2 mph - N/A   Mostly Cloudy